Total_Precipitation_Accumulation
0.07 0.05 0.10 0.11 0.13 0.11 0.09 0.10 0.12 0.14 0.13 0.11 0.10 0.08 0.07 0.06 0.05 0.06 0.09 0.10 0.11 0.13 0.16 0.17 0.20 0.25 0.26 0.26 0.31 0.39 0.44 0.33 0.28 0.26 0.20 0.21 0.27 0.21 0.21 0.28 0.53 0.69 0.32
0.04 0.05 0.11 0.11 0.08 0.08 0.08 0.10 0.11 0.11 0.12 0.11 0.10 0.08 0.06 0.05 0.04 0.05 0.05 0.05 0.05 0.08 0.13 0.16 0.20 0.25 0.27 0.27 0.34 0.41 0.41 0.36 0.35 0.35 0.30 0.27 0.25 0.19 0.15 0.19 0.44 0.59 0.35
0.03 0.05 0.08 0.12 0.10 0.10 0.11 0.12 0.13 0.16 0.16 0.12 0.10 0.10 0.08 0.06 0.05 0.05 0.04 0.03 0.03 0.05 0.08 0.12 0.19 0.24 0.29 0.35 0.37 0.38 0.35 0.37 0.39 0.42 0.56 0.77 0.42 0.25 0.23 0.19 0.29 0.32 0.31
0.04 0.05 0.11 0.18 0.18 0.19 0.18 0.18 0.19 0.21 0.21 0.17 0.13 0.12 0.09 0.07 0.06 0.07 0.05 0.03 0.03 0.05 0.07 0.09 0.13 0.20 0.27 0.34 0.38 0.36 0.32 0.36 0.39 0.40 0.55 0.78 0.68 0.38 0.35 0.33 0.37 0.30 0.30
0.05 0.08 0.18 0.24 0.25 0.29 0.27 0.27 0.26 0.25 0.24 0.20 0.16 0.15 0.12 0.11 0.07 0.05 0.04 0.05 0.04 0.04 0.05 0.08 0.11 0.17 0.24 0.26 0.26 0.28 0.29 0.38 0.47 0.35 0.40 0.58 0.78 0.51 0.37 0.43 0.44 0.37 0.32
0.11 0.15 0.25 0.28 0.29 0.35 0.35 0.35 0.38 0.32 0.28 0.23 0.19 0.17 0.16 0.13 0.08 0.06 0.07 0.10 0.06 0.04 0.04 0.06 0.11 0.17 0.22 0.25 0.25 0.27 0.36 0.43 0.39 0.42 0.44 0.61 0.82 0.56 0.43 0.46 0.42 0.50 0.42
0.29 0.27 0.28 0.32 0.36 0.43 0.42 0.39 0.46 0.44 0.42 0.32 0.23 0.20 0.19 0.15 0.10 0.09 0.12 0.13 0.10 0.06 0.03 0.04 0.07 0.11 0.16 0.22 0.23 0.27 0.37 0.37 0.48 0.53 0.47 0.60 0.57 0.49 0.45 0.44 0.47 0.60 0.57
0.52 0.44 0.37 0.40 0.46 0.51 0.50 0.54 0.65 0.64 0.55 0.40 0.28 0.28 0.25 0.21 0.16 0.12 0.13 0.12 0.12 0.10 0.05 0.03 0.04 0.06 0.08 0.15 0.17 0.24 0.36 0.42 0.47 0.44 0.33 0.43 0.48 0.43 0.37 0.41 0.47 0.60 0.65
0.82 0.68 0.54 0.53 0.57 0.65 0.70 0.73 0.84 0.87 0.77 0.58 0.40 0.38 0.34 0.27 0.21 0.16 0.14 0.12 0.10 0.08 0.05 0.04 0.03 0.03 0.05 0.08 0.12 0.21 0.33 0.36 0.41 0.38 0.23 0.28 0.40 0.29 0.24 0.29 0.38 0.50 0.59
0.90 0.85 0.78 0.73 0.73 0.80 0.85 0.96 1.05 1.14 1.21 0.95 0.63 0.52 0.46 0.34 0.25 0.22 0.18 0.16 0.14 0.12 0.08 0.05 0.03 0.02 0.05 0.07 0.10 0.15 0.20 0.23 0.34 0.27 0.23 0.24 0.32 0.22 0.16 0.19 0.28 0.30 0.37
0.66 0.71 0.76 0.80 0.85 0.86 0.82 0.87 1.08 1.25 1.40 1.13 0.75 0.73 0.62 0.43 0.41 0.39 0.29 0.28 0.25 0.23 0.17 0.11 0.06 0.03 0.03 0.06 0.08 0.10 0.10 0.13 0.25 0.24 0.21 0.19 0.21 0.13 0.09 0.08 0.10 0.14 0.19
0.53 0.51 0.54 0.56 0.66 0.73 0.72 0.92 1.18 1.22 1.34 1.08 0.89 0.92 0.86 0.89 0.80 0.56 0.49 0.48 0.43 0.38 0.28 0.21 0.16 0.08 0.04 0.03 0.06 0.05 0.05 0.09 0.15 0.16 0.13 0.16 0.16 0.08 0.03 0.02 0.02 0.04 0.06
0.42 0.40 0.39 0.41 0.44 0.53 0.74 0.98 1.20 1.25 1.28 1.32 1.34 1.19 1.14 1.09 0.88 0.68 0.62 0.59 0.53 0.49 0.42 0.40 0.33 0.21 0.13 0.06 0.08 0.05 0.03 0.07 0.12 0.11 0.11 0.13 0.17 0.10 0.04 0.02 0.01 0.02 0.03
0.46 0.44 0.38 0.30 0.31 0.39 0.53 0.75 1.03 1.10 1.16 1.23 1.22 1.01 1.08 1.07 0.87 0.78 0.82 0.83 0.73 0.64 0.68 0.66 0.56 0.43 0.28 0.14 0.11 0.06 0.05 0.05 0.08 0.08 0.15 0.11 0.15 0.12 0.08 0.04 0.02 0.02 0.03
0.53 0.61 0.59 0.43 0.37 0.39 0.45 0.50 0.64 0.74 0.85 1.12 1.19 0.92 0.90 0.89 0.92 0.93 0.79 0.88 0.88 0.84 0.79 0.71 0.60 0.48 0.40 0.25 0.21 0.12 0.06 0.05 0.06 0.08 0.13 0.09 0.10 0.13 0.11 0.07 0.05 0.03 0.03
0.36 0.49 0.57 0.55 0.54 0.52 0.45 0.40 0.40 0.46 0.58 0.72 0.73 0.69 0.72 0.74 0.82 0.96 0.85 0.80 0.82 0.97 0.99 0.84 0.69 0.62 0.53 0.35 0.26 0.17 0.08 0.04 0.05 0.06 0.10 0.08 0.05 0.06 0.09 0.08 0.07 0.06 0.06
0.26 0.32 0.42 0.50 0.56 0.58 0.59 0.58 0.47 0.46 0.51 0.52 0.52 0.59 0.66 0.66 0.78 0.93 0.85 0.70 0.66 0.79 0.91 0.97 0.89 0.74 0.60 0.47 0.33 0.21 0.11 0.04 0.03 0.05 0.05 0.09 0.09 0.04 0.06 0.09 0.10 0.09 0.10
0.25 0.25 0.31 0.36 0.43 0.53 0.62 0.68 0.66 0.61 0.55 0.50 0.46 0.43 0.47 0.49 0.56 0.73 0.77 0.66 0.63 0.77 0.92 1.01 1.01 0.94 0.72 0.57 0.45 0.28 0.16 0.10 0.05 0.05 0.05 0.05 0.07 0.08 0.08 0.08 0.13 0.14 0.15
0.24 0.23 0.24 0.28 0.32 0.40 0.51 0.57 0.58 0.57 0.52 0.50 0.49 0.39 0.37 0.39 0.48 0.66 0.79 0.79 0.79 0.85 0.93 0.96 1.04 1.02 0.93 0.74 0.57 0.37 0.23 0.16 0.09 0.05 0.05 0.05 0.05 0.05 0.10 0.09 0.07 0.09 0.14
0.24 0.24 0.24 0.26 0.27 0.31 0.35 0.43 0.48 0.45 0.44 0.49 0.47 0.46 0.49 0.55 0.60 0.75 0.92 1.00 1.09 1.07 1.07 1.19 1.37 1.27 1.04 0.92 0.78 0.52 0.31 0.21 0.13 0.08 0.06 0.06 0.06 0.07 0.07 0.05 0.05 0.04 0.05
0.18 0.17 0.19 0.24 0.26 0.25 0.24 0.29 0.34 0.35 0.44 0.51 0.58 0.63 0.66 0.70 0.76 0.92 1.09 1.30 1.39 1.23 1.20 1.35 1.54 1.59 1.33 1.10 1.00 0.79 0.55 0.33 0.20 0.14 0.10 0.09 0.08 0.09 0.10 0.10 0.07 0.08 0.10
0.05 0.09 0.13 0.15 0.17 0.17 0.18 0.23 0.32 0.39 0.45 0.57 0.73 0.84 0.85 0.83 0.88 0.92 1.08 1.23 1.28 1.27 1.27 1.31 1.45 1.64 1.52 1.29 1.24 1.34 1.06 0.74 0.38 0.19 0.15 0.12 0.11 0.09 0.11 0.13 0.11 0.09 0.09
0.02 0.03 0.06 0.11 0.14 0.14 0.22 0.41 0.68 0.92 1.00 1.02 1.04 1.18 1.27 1.23 1.17 1.14 1.15 1.27 1.32 1.39 1.34 1.30 1.32 1.47 1.50 1.39 1.35 1.59 1.31 1.02 0.85 0.47 0.27 0.26 0.23 0.20 0.16 0.15 0.15 0.14 0.09
0.03 0.03 0.04 0.09 0.15 0.18 0.35 0.68 1.07 1.39 1.48 1.49 1.61 1.65 1.71 1.63 1.49 1.45 1.45 1.52 1.44 1.38 1.29 1.26 1.25 1.33 1.52 1.49 1.42 1.32 1.21 1.06 1.14 0.92 0.55 0.38 0.37 0.34 0.31 0.26 0.22 0.18 0.17
0.10 0.11 0.13 0.20 0.34 0.50 0.65 0.83 1.13 1.32 1.44 1.58 1.73 1.88 1.99 2.11 2.08 1.99 1.91 1.75 1.53 1.42 1.38 1.40 1.37 1.38 1.44 1.43 1.38 1.31 1.28 1.18 0.95 0.91 0.87 0.65 0.49 0.41 0.38 0.37 0.36 0.26 0.24
0.24 0.27 0.31 0.41 0.51 0.58 0.70 0.84 0.98 1.07 1.23 1.43 1.58 1.75 1.88 2.00 2.03 1.97 1.84 1.61 1.41 1.32 1.36 1.44 1.43 1.43 1.42 1.42 1.35 1.21 1.15 1.09 0.96 0.98 0.88 0.87 0.86 0.57 0.45 0.40 0.39 0.36 0.31